Regional Weather Roundup
Issued by NWS

Home | Current Version | Previous Version | Text Only | Print | Product List | Glossary Off
Versions: 1 2 3 4 5 6 7 8 9 10 11 12 13 14 15 16 17 18 19 20 21 22 23 24 25 26 27 28 29 30 31 32 33 34 35 36 37 38 39 40 41 42 43 44 45 46 47 48 49 50

000
ASUS43 KOAX 230710
RWRNE

WEATHER ROUNDUP FOR NEBRASKA
NATIONAL WEATHER SERVICE OMAHA NE
200 AM CDT SAT MAY 23 2015

NOTES: SATELLITE DATA IS BEING USED TO AUGMENT CLOUD COVER ABOVE
       12000 FEET.
       "FAIR" INDICATES FEW OR NO CLOUDS BELOW 12,000 FEET WITH NO
       SIGNIFICANT WEATHER AND/OR OBSTRUCTIONS TO VISIBILITY.

  * THESE STATIONS DO NOT REPORT WEATHER SUCH AS RAIN...SNOW OR FOG.

NEZ001>004-019>022-054>056-230800-
NEBRASKA PANHANDLE

CITY           SKY/WX    TMP DP  RH WIND       PRES   REMARKS
SCOTTSBLUFF    CLOUDY    46  45  96 SE12      30.07R
ALLIANCE       CLOUDY    46  44  93 SE12      30.06S
CHADRON        CLOUDY    47  44  90 SE6       30.06F
KIMBALL          N/A    N/A N/A N/A MISG        N/A
SIDNEY         FOG       46  46 100 SE8       30.06S VSB 1/2
$$

NEZ057>060-069>072-079>082-230800-
SOUTHWEST NEBRASKA

CITY           SKY/WX    TMP DP  RH WIND       PRES   REMARKS
NORTH PLATTE   CLOUDY    51  50  96 SE7       30.08F
IMPERIAL       RAIN      52  51  97 SE17      30.06S
LEXINGTON      CLOUDY    54  53  97 SE10G17   30.11F FOG
MCCOOK         CLOUDY    54  53  97 SE10      30.08F FOG
OGALLALA       CLOUDY    49  49  99 E3        30.07S FOG
$$

NEZ005>010-023>029-035>040-094-230800-
NORTH CENTRAL NEBRASKA

CITY           SKY/WX    TMP DP  RH WIND       PRES   REMARKS
VALENTINE      CLOUDY    48  46  93 E5        30.12F
AINSWORTH      DRIZZLE   49  49  98 SE8       30.13S
BROKEN BOW     CLOUDY    52  51  97 SE12      30.10F FOG
O`NEILL        CLOUDY    52  50  95 E6        30.16S
ORD            CLOUDY    51  50  96 SE7       30.13F FOG
THEDFORD       DRIZZLE   49  48  97 SE7       30.10F
$$

NEZ041-046>049-061>064-073>077-083>087-230800-
SOUTH CENTRAL NEBRASKA

CITY           SKY/WX    TMP DP  RH WIND       PRES   REMARKS
GRAND ISLAND   CLOUDY    54  50  86 SE9       30.15F
AURORA         CLOUDY    54  48  80 SE8       30.16S
HASTINGS       CLOUDY    54  50  86 S10       30.14F
HEBRON         CLOUDY    56  47  70 S7        30.17S
HOLDREGE       CLOUDY    53  51  95 SE13      30.12S FOG
KEARNEY *      CLOUDY    54  50  87 SE15      30.13F
YORK           CLOUDY    55  46  71 S10       30.17F
$$

NEZ011>018-030>034-042>045-230800-
NORTHEAST NEBRASKA

CITY           SKY/WX    TMP DP  RH WIND       PRES   REMARKS
NORFOLK        CLOUDY    54  51  90 SE6       30.17F
ALBION         CLOUDY    53  47  81 SE7       30.16S
BLAIR          CLOUDY    59  47  64 SE8       30.19R
COLUMBUS *     CLOUDY    55  43  62 S6        30.21R
FREMONT        CLOUDY    60  48  66 SE6       30.19S
TEKAMAH        CLOUDY    58  51  78 S3        30.19R
WAYNE          CLOUDY    54  51  89 CALM      30.19S
$$

NEZ050>053-065>068-078-088>093-230800-
SOUTHEAST NEBRASKA

CITY           SKY/WX    TMP DP  RH WIND       PRES   REMARKS
LINCOLN        CLOUDY    58  47  66 S7        30.19S
OMAHA EPPLEY   CLOUDY    60  49  66 SE10      30.19S
BEATRICE       CLOUDY    56  48  74 SE5       30.17F
FALLS CITY     CLOUDY    56  51  84 SE6       30.18F
NEBRASKA CITY  CLOUDY    57  48  73 SE3       30.19S
PLATTSMOUTH    CLOUDY    58  48  69 SE8       30.19S
$$

NEZ044-045-051>053-067-230800-
OMAHA AREA

CITY           SKY/WX    TMP DP  RH WIND       PRES   REMARKS
OMAHA EPPLEY   CLOUDY    60  49  66 SE10      30.19S
BLAIR          CLOUDY    59  47  64 SE8       30.19R
FREMONT        CLOUDY    60  48  66 SE6       30.19S
MILLARD        CLOUDY    59  50  71 SE5       30.19S
OFFUTT AFB     CLOUDY    57  51  78 SE3       30.19R
PLATTSMOUTH    CLOUDY    58  48  69 SE8       30.19S
WAHOO          CLOUDY    58  49  73 SE6       30.19S
$$



USA.gov is the U.S. government's official web portal to all federal, state and local government web resources and services.